Location: Bishop�s Knoyle
(51.0728°N, 2.1714°W)
Time: 10:28:54
(UTC+00:00)

ATLAS CENTAUR R/B - Visible Passes

Search period start: 20 June 2021 00:00
Search period end: 30 June 2021 00:00
Orbit: 472 x 671 km, 64.6° (Epoch: 13 June)

Date Brightness Start Highest point End Pass type
(mag) Time Alt. Az. Time Alt. Az. Time Alt. Az.
20 Jun 2.5 21:46:24 10° NW 21:50:26 39° WSW 21:54:30 11° S visible
21 Jun 3.0 21:48:44 10° WNW 21:52:27 28° WSW 21:56:21 10° S visible
22 Jun 3.5 21:51:12 10° WNW 21:54:27 20° WSW 21:57:47 10° SSW visible
23 Jun 3.9 21:53:59 10° W 21:56:23 14° WSW 21:58:51 10° SW visible
